www.pogodaiklimat.ru

Погода и климат >> Архив погоды >> Индия >> Гуджарат >> Сурат


ПОГОДА в Сурате

  • Прогноз погоды в Сурате
  • Монитор погоды в Сурате

АРХИВ ПОГОДЫ в Сурате

Время (UTC), дата Ветер
(напр.,м/с)
 
Видим.   Явления Облачность Т
(С)
Тd
(С)
f
(%)
Тe
(С)
Тes
(С)
Комфортность P
(гПа)
Po
(гПа)
Тmin
(С)
Tmax
(С)
R
(мм)
R24
(мм)
S
(см)
18 15.04 ЮЗ 3 4000 м 5/0 2000 м
[Ac trans Ci fib]
+30.0 +24.0 70 +41 +41 опасность
перегрева
1010.3 1008.9
21 15.04 штиль 0 4000 м 9/4 750 м
[Sc Ac trans Ci fib]
+30.0 +17.4 47 +34 +34 очень
душно
1008.8 1007.4
00 16.04 С 2 4000 м 5/0 2000 м
[Ac trans Ci fib]
+28.4 +18.4 55 +33 +33 очень
душно
1008.4 1007.0
03 16.04 СВ 2 4000 м дым 9/3 750 м
[Sc Ac trans Ci fib]
+29.6 +18.8 52 +35 +37 очень
душно
1010.8 1009.4 +28.0
06 16.04 СВ 3 4000 м 9/3 750 м
[Sc Ac trans Ci fib]
+35.4 +12.5 25 +35 +43 очень
жарко
1010.5 1009.2
09 16.04 С 2 2000 м пыль 5/0
[Ac trans]
+35.8 +16.0 31 +38 +50 очень
душно
1007.7 1006.4
12 16.04 ЮЗ 3 4000 м 3/0
[Ac trans]
+33.6 +17.0 37 +37 +39 очень
душно
1006.1 1004.8 +37.0
15 16.04 Ю 2 4000 м 4/0
[Ac trans]
+29.0 +20.9 62 +36 +36 очень
душно
1008.2 1006.8
18 16.04 ЮЗ 2 4000 м 5/0
[Ac trans]
+28.8 +23.0 71 +39 +39 очень
душно
1009.5 1008.1
21 16.04 ЮЗ 2 4000 м 5/0
[Ac trans]
+28.4 +23.1 73 +38 +38 очень
душно
1009.9 1008.5
00 17.04 СЗ 2 4000 м ясно +25.4 +18.1 64 +30 +30 душно 1011.1 1009.7
03 17.04 С 1 4000 м ясно +27.2 +18.1 58 +32 +38 очень
душно
1013.4 1012.0 +23.6
06 17.04 С 1 4000 м 3/3 600 м
[Sc]
+32.0 +13.5 33 +33 +50 жарко 1013.4 1012.0
09 17.04 З 3 4000 м 1/0
[Ac trans]
+33.6 +9.5 23 +33 +46 жарко 1010.5 1009.1
12 17.04 ЮЗ 3 4000 м ясно +31.4 +12.6 32 +32 +34 жарко 1009.7 1008.3 +34.8
15 17.04 З 3 4000 м ясно +28.0 +19.4 60 +34 +34 очень
душно
1011.4 1010.0
18 17.04 З 3 4000 м ясно +27.0 +21.6 72 +34 +34 очень
душно
1012.5 1011.1
21 17.04 З 1 4000 м ясно +27.0 +22.3 75 +35 +35 очень
душно
1011.4 1010.0
00 18.04 штиль 0 4000 м ясно +26.2 +20.4 70 +32 +32 очень
душно
1010.9 1009.5
03 18.04 СЗ 2 4000 м ясно +28.4 +20.2 61 +35 +41 очень
душно
1013.5 1012.1 +25.2
06 18.04 Ю 1 4000 м 1/0
[Ac cast]
+33.0 +20.1 47 +39 +61 опасность
солнечного
удара
1013.3 1011.9
09 18.04 СЗ 3 4000 м 5/5 600 м
[Sc diur, vesp]
+35.2 +17.6 35 +39 +46 очень
душно
1010.2 1008.9
12 18.04 С 1 4000 м ясно +34.8 +13.1 27 +35 +38 очень
жарко
1008.7 1007.4 +35.5
15 18.04 штиль 0 4000 м ясно +30.4 +17.6 46 +34 +34 очень
душно
1009.7 1008.3
18 18.04 СЗ 1 4000 м ясно +27.8 +24.0 80 +39 +39 очень
душно
1011.1 1009.7
21 18.04 СЗ 1 4000 м ясно +27.0 +21.6 72 +34 +34 очень
душно
1008.9 1007.5
00 19.04 штиль 0 4000 м ясно +25.4 +21.2 78 +32 +32 очень
душно
1008.9 1007.5
03 19.04 СВ 1 4000 м ясно +29.2 +14.3 40 +31 +38 жарко 1010.8 1009.4 +24.0
06 19.04 С 1 4000 м ясно +35.0 +12.9 26 +35 +58 опасность
солнечного
удара
1010.9 1009.6
09 19.04 СЗ 3 4000 м ясно +38.0 +10.2 19 +37 +51 опасность
солнечного
удара
1007.4 1006.1
12 19.04 С 3 4000 м ясно +35.2 +9.0 20 +34 +36 очень
жарко
1006.5 1005.2 +39.0
15 19.04 штиль 0 4000 м ясно +31.0 +12.4 32 +32 +32 жарко 1007.4 1006.0
18 19.04 штиль 0 4000 м ясно +28.2 +10.6 33 +29 +29 жарко 1008.1 1006.7
21 19.04 штиль 0 4000 м ясно +27.4 +19.7 63 +33 +33 очень
душно
1007.4 1006.0
00 20.04 штиль 0 4000 м ясно +24.4 +20.1 77 +30 +30 очень
душно
1006.7 1005.3
03 20.04 СВ 3 4000 м ясно +30.6 +15.8 41 +33 +39 душно 1009.0 1007.6 +24.0
06 20.04 СЗ 3 4000 м ясно +35.6 +13.8 27 +36 +54 опасность
солнечного
удара
1009.0 1007.7
09 20.04 З 2 4000 м ясно +37.8 +10.9 20 +37 +54 опасность
солнечного
удара
1005.8 1004.5
12 20.04 З 2 4000 м ясно +37.4 +5.8 14 +35 +37 очень
жарко
1004.2 1002.9 +39.4
15 20.04 З 3 4000 м ясно +30.0 +18.2 49 +35 +35 очень
душно
1005.8 1004.4
18 20.04 З 2 4000 м ясно +28.0 +22.1 70 +36 +36 очень
душно
1007.1 1005.7
21 20.04 штиль 0 4000 м ясно +27.0 +21.6 72 +34 +34 очень
душно
1005.9 1004.5
00 21.04 штиль 0 4000 м ясно +25.0 +22.0 83 +32 +32 очень
душно
1006.3 1004.9
03 21.04 штиль 0 4000 м ясно +28.2 +21.6 67 +36 +44 очень
душно
1008.9 1007.5 +24.2
06 21.04 С 1 4000 м ясно +35.4 +14.9 29 +37 +60 опасность
солнечного
удара
1008.8 1007.5
09 21.04 ЮЗ 1 4000 м 1/1 750 м
[Cu Sc]
+38.0 +17.9 31 +41 +60 опасность
перегрева
1006.2 1004.9
12 21.04 З 1 4000 м ясно +37.6 +14.6 26 +39 +42 очень
душно
1004.6 1003.3 +39.0
15 21.04 ЮЗ 2 4000 м ясно +29.6 +21.6 62 +38 +38 очень
душно
1005.9 1004.5
18 21.04 СЗ 1 4000 м ясно +28.4 +21.9 68 +37 +37 очень
душно
1007.5 1006.1
21 21.04 штиль 0 4000 м ясно +27.2 +24.0 83 +38 +38 очень
душно
1006.6 1005.2
00 22.04 штиль 0 4000 м ясно +26.6 +24.6 89 +38 +38 очень
душно
1007.1 1005.7
03 22.04 штиль 0 4000 м ясно +28.6 +24.0 76 +40 +47 очень
душно
1009.2 1007.8 +25.6
06 22.04 штиль 0 4000 м ясно +36.0 +14.5 28 +37 +64 опасность
солнечного
удара
1009.5 1008.2
09 22.04 З 3 4000 м ясно +37.6 +17.7 31 +41 +57 опасность
перегрева
1007.0 1005.7
12 22.04 ЮЗ 2 4000 м ясно +37.6 +15.6 27 +39 +42 очень
душно
1005.7 1004.4 +38.9
15 22.04 З 2 2000 м ясно +29.4 +23.0 68 +39 +39 очень
душно
1007.1 1005.7

 

Местоположение метеостанции Сурат (Гуджарат, Индия): широта 21.20 долгота 72.83 высота над уровнем моря 12 м.

В архиве по умолчанию представлена погода в Сурате за последнюю неделю. Архивные данные за месяц целиком и за предыдущие месяцы, начиная с января 2011 года, Вы можете получить, выбрав интересующий диапазон дат из раскрывающегося списка и нажав кнопку "Ввод!".


*Определитесь, кто Вы:
робот инопланетянин человек

Внимание! Время в таблицах - всемирное. Для получения местного времени необходимо прибавить поправку, которая равна 5.5 ч.

Смотрите также архив погоды в соседних городах и на ближайших метеорологических станциях:

Погода в Валсаде (Гуджарат, Индия) (65 км)
Погода в Бхавнагаре (Гуджарат, Индия) (89 км)
Погода в Махьюве (Гуджарат, Индия) (110 км)
Погода в Бароде (Гуджарат, Индия) (134 км)
Погода в Дахану (Махараштра, Индия) (137 км)
Погода в Нандурбаре (Махараштра, Индия) (148 км)
Погода в Валлаб Видьянагаре (Гуджарат, Индия) (153 км)
Погода в Нашике (Махараштра, Индия) (166 км)
Погода в Амрели (Гуджарат, Индия) (173 км)
Погода в Малегаоне (Махараштра, Индия) (191 км)

Пояснения к столбцам:

Ветер - указаны скорость ветра в м/с - средняя за 10 мин, порывы в срок и между сроками (в фигурных скобках) и направление, откуда дует ветер: С - северный, СВ - северо-восточный, В - восточный, ЮВ - юго-восточный, Ю - южный, ЮЗ - юго-западный, З - западный, СЗ - северо-западный.
Видимость - горизонтальная дальность видимости в метрах или километрах. При видимости от 1 до 10 км при отсутствии осадков обычно наблюдается дымка, при ухудшении видимости до 1 км и менее - туман. В сухую погоду видимость может ухудшаться дымом, пылью или мглою.
Явления - указаны атмосферные явления, наблюдавшиеся в срок или в последний час перед сроком; фигурными скобками обозначены явления, наблюдавшиеся между сроками (за 1-3 часа до срока); квадратными скобками обозначены град или гололедные отложения с указанием их диаметра в мм.
Облачность - указаны через наклонную черту общая и нижняя облачность в баллах и высота нижней границы облаков в метрах; квадратными скобками обозначены формы облаков: Ci - перистые, Cs - перисто-слоистые, Cc - перисто-кучевые, Ac - высококучевые, As - высокослоистые, Sc - слоисто-кучевые, Ns - слоисто-дождевые, Cu - кучевые, Cb - кучево-дождевые. Подробнее классификацию облаков см. в Атласе облаков (PDF).
T - Температура воздуха - температура, измеренная на высоте 2 м над землей.
Td - Температура точки росы - температура, при понижении до которой содержащийся в воздухе водяной пар достигнет насыщения.
f - Относительная влажность воздуха - влажноcть воздуха, измеренная на высоте 2 м над землей.
Te - Эффективная температура - температура, которую ощущает одетый по сезону человек в тени. Характеристика душности погоды. При расчете учитывается влияние влажности воздуха и скорости ветра на теплоощущения человека.
Tes - Эффективная температура на солнце - температура, которую ощущает человек, с поправкой на солнечный нагрев. Характеристика знойности погоды. Зависит от высоты солнца над горизонтом, облачности и скорости ветра. Ночью, в пасмурную погоду, а также при ветре 12 м/с и более поправка равна нулю.
P - Атмосферное давление - приведенное к уровню моря атмосферное давление.
Po - Атмосферное давление - измеренное на уровне метеостанции атмосферное давление.
Tmin - Минимальная температура - минимум температуры воздуха на высоте 2 м над землей.
Tmax - Максимальная температура - максимум температуры воздуха на высоте 2 м над землей.
R - Количество осадков - Количество выпавших осадков за период времени, мм. При наведении курсора мыши на число - период времени, за который выпало указанное количество осадков.
R24 - Количество осадков - Количество выпавших осадков за 24 часа, мм.
S - Снежный покров - Высота снежного покрова, см. При наведении курсора мыши на число - состояние снежного покрова и степень покрытия местности в баллах.